Regional Weather Roundup
Issued by NWS Green Bay, WI

Home | Current Version | Previous Version | Graphics & Text | Print | Product List | Glossary Off
Versions: 1 2 3 4 5 6 7 8 9 10 11 12 13 14 15 16 17 18 19 20 21 22 23 24 25 26 27 28 29 30 31 32 33 34 35 36 37 38 39 40 41 42 43 44 45 46 47 48 49 50

000
ASUS43 KGRB 181110
RWRGRB

NORTH-CENTRAL AND NORTHEAST WISCONSIN REGIONAL WEATHER ROUNDUP
NATIONAL WEATHER SERVICE GREEN BAY WI
600 AM CDT THU SEP 18 2014

WIZ005-009-010>012-018-019-181200-
NORTH CENTRAL WISCONSIN

CITY           SKY/WX    TMP DP  RH WIND       PRES   REMARKS
IRONWOOD       CLOUDY    39  36  87 SE8       30.14S
MANITOWISH WTR CLOUDY    39  39  98 E5        30.14S
ARBOR VITAE    CLOUDY    42  40  91 CALM      30.14S
EAGLE RIVER    CLOUDY    38  37  97 E6        30.15S
LAND O LAKES   CLOUDY    37  36  94 CALM      30.17R
RHINELANDER    CLOUDY    41  40  96 E9        30.15R
PHILLIPS       CLOUDY    45  42  91 E6        30.13R
ANTIGO         CLOUDY    41  40  96 E7        30.15S
TOMAHAWK       CLOUDY    45  42  89 E3        30.14S
MERRILL        CLOUDY    45  43  93 E6        30.14R
$$

WIZ013-073-181200-
NORTHEAST WISCONSIN

CITY           SKY/WX    TMP DP  RH WIND       PRES   REMARKS
IRON MOUNTAIN  CLOUDY    40  33  76 NE7       30.17S
MARINETTE      CLOUDY    43  34  70 N8        30.18R
OCONTO         CLOUDY    41  37  84 N5        30.18R
$$

WIZ017-030-035>037-045-181200-
CENTRAL WISCONSIN

CITY           SKY/WX    TMP DP  RH WIND       PRES   REMARKS
MEDFORD        CLOUDY    46  45  94 SE3       30.12S
WAUSAU         CLOUDY    45  42  89 E8        30.13S
MOSINEE        CLOUDY    45  45 100 E7        30.14S
MARSHFIELD     CLOUDY    45  43  93 E9        30.12R
WISC RAPIDS    CLOUDY    47  44  90 E7        30.14R
STEVENS POINT  CLOUDY    42  40  91 E9        30.15R
WAUPACA        CLOUDY    46  44  91 NE5       30.16R
SHAWANO        CLOUDY    44  38  79 NE10      30.18R
CLINTONVILLE   CLOUDY    43  37  81 E8        30.16R
$$

WIZ038-039-048-051-181200-
FOX VALLEY

CITY           SKY/WX    TMP DP  RH WIND       PRES   REMARKS
NWS GREEN BAY  CLOUDY    44  39  82 N12       30.16R
APPLETON       CLOUDY    45  39  81 NE10      30.15R
OSHKOSH        CLOUDY    49  46  90 NE10      30.13S
FOND DU LAC    CLOUDY    47  43  86 E12       30.14R
$$

WIZ022-050-052-181200-
EAST CENTRAL WISCONSIN

CITY           SKY/WX    TMP DP  RH WIND       PRES   REMARKS
STURGEON BAY   CLOUDY    45  36  70 NE9       30.17R
MANITOWOC      CLOUDY    47  42  83 N8        30.15R
SHEBOYGAN      CLOUDY    48  43  82 N8        30.14R
$$

LMZ563-521-522-541>543-181200-
LAKESHORE

STATION/POSITION TIME  TEMP    WIND        PRES    VSBY  WAVE
                       AIR SEA DIR/SP/G                  HT/PER
                 (UTC) (F)     (DEG/KT/KT) (MB)    (MI)  (FT/S)
SHEBOYGAN LKSHOR 1100   48 48   10/ 17/ 18 1020.9R
KEWAUNEE LKSHORE 1100   44     360/  9/ 12 1020.1R
NORTHPORT PIER   1100   46      10/  9/ 12 1021.7S
N MID LAKE BUOY  1100   48 57   30/ 12/ 16 1021.3R         3/ 5
S GREEN BAY BUOY 1000   46     VRB 14/ 17  1021.9R
SISTER BAY LKSHO 1100          120/  4/  9   N/A
CHAMBERS ISLAND  1100   46      10/ 13/ 17 1022.0R
MENOMINEE LKSHOR 1100   44     350/ 13/ 18 1022.3R
$$


USA.gov is the U.S. government's official web portal to all federal, state and local government web resources and services.